Regional Weather Roundup
Issued by NWS

Home | Current Version | Previous Version | Graphics & Text | Print | Product List | Glossary On
Versions: 1 2 3 4 5 6 7 8 9 10 11 12 13 14 15 16 17 18 19 20 21 22 23 24 25 26 27 28 29 30 31 32 33 34 35 36 37 38 39 40 41 42 43 44 45 46 47 48 49 50
000
ASUS43 KDTX 040410
RWRMI
MICHIGAN HOURLY REGIONAL WEATHER ROUNDUP
NATIONAL WEATHER SERVICE DETROIT/PONTIAC MI
1100 PM EST TUE MAR 03 2015

NOTE: "FAIR" INDICATES FEW OR NO CLOUDS BELOW 12,000 FEET WITH NO
SIGNIFICANT WEATHER AND/OR OBSTRUCTION TO VISIBILITY.

MIZ047>049-052>055-059>063-066>070-074>076-081>083-040500-
SOUTHEAST LOWER MICHIGAN

CITY           SKY/WX    TMP DP  RH WIND       PRES   REMARKS
ADRIAN         CLOUDY    35  27  72 NW17G23   29.77R WCI  25
ALMA           CLOUDY    29  24  82 W17G23    29.74R WCI  17
ANN ARBOR      CLOUDY    34  27  75 W16G24    29.74R WCI  24
BAD AXE        CLOUDY    30  26  85 W14G24    29.67R WCI  19
CARO           CLOUDY    30  24  78 W16G23    29.70R WCI  19
DETROIT CITY   CLOUDY    37  27  67 W12G25    29.72R WCI  29
DETROIT        CLOUDY    36  27  69 W17G28    29.74R WCI  26
FLINT          CLOUDY    33  24  69 W23       29.72R WCI  21
GROSSE ILE     CLOUDY    36  28  75 W12G18    29.73R WCI  27
HILLSDALE      CLOUDY    34  30  85 W20       29.75R WCI  22
HOWELL         CLOUDY    32  27  82 W12       29.72R WCI  23

CITY           SKY/WX    TMP DP  RH WIND       PRES   REMARKS
JACKSON        CLOUDY    33  26  75 W14       29.75R WCI  23
LAMBERTVILLE   CLOUDY    36  30  80 W7G16     29.76R WCI  30
LANSING        CLOUDY    31  24  75 W15G29    29.76R WCI  20
LAPEER         CLOUDY    32  25  76 W10G20    29.70R WCI  23
MASON          CLOUDY    32  26  77 W17G23    29.74R WCI  21
MONROE         CLOUDY    36  28  75 W15G25    29.73S WCI  26
MT. CLEMENS    CLOUDY    35  28  75 W16       29.69R WCI  25
PONTIAC        CLOUDY    32  26  78 W18       29.70R WCI  20
PORT HOPE        N/A     30  24  78 W10G20    29.64R WCI  21
PORT HURON     CLOUDY    34  28  80 W9        29.71R WCI  26
TRI CITIES     CLOUDY    31  22  69 W18       29.72R WCI  19
TROY           CLOUDY    36  28  74 W10G18    29.73R WCI  28
SAGINAW HB     CLOUDY    32  25  74 W18G26    29.72R WCI  20
$$
MIZ043>046-050>051-056>058-064>065-071>073-077>080-040500-
SOUTHWEST LOWER MICHIGAN

CITY           SKY/WX    TMP DP  RH WIND       PRES   REMARKS
BATTLE CREEK   CLOUDY    33  27  78 W16       29.78R WCI  23
BENTON HARBOR  CLOUDY    32  29  88 W12       29.82R WCI  23
BIG RAPIDS     MOCLDY    26  24  89 W7        29.70S WCI  19
COLDWATER      CLOUDY    33  28  81 W17       29.77R WCI  22
FREMONT        CLOUDY    28  22  78 W8        29.76R WCI  20
HOLLAND        CLOUDY    32  24  72 NW10      29.81R WCI  24
GRAND RAPIDS   CLOUDY    30  23  75 W13       29.78R WCI  20
IONIA          MOCLDY    30  25  80 W13       29.75R WCI  20
KALAMAZOO      CLOUDY    33  26  75 NW15G23   29.79R WCI  23
LUDINGTON      CLOUDY    31  21  68 W13G18    29.75R WCI  21
MARSHALL       CLOUDY    32  27  83 W12       29.76R WCI  23
MOUNT PLEASANT CLOUDY    29  24  80 W9G18     29.71R WCI  20
MUSKEGON       CLOUDY    30  22  72 W13       29.80R WCI  20
SOUTH HAVEN    CLOUDY    32  27  80 W8        29.81R WCI  25
$$
MIZ016>042-040500-
NORTHERN LOWER MICHIGAN

CITY           SKY/WX    TMP DP  RH WIND       PRES   REMARKS
ALPENA         PTCLDY    26  20  77 W8G16     29.63R WCI  18
BEAVER ISLAND  MOCLDY    24  20  87 W14       29.65R WCI  11
BELLAIRE       CLOUDY    27  23  84 SW7       29.68R WCI  19
CADILLAC       CLOUDY    24  21  89 W6        29.66S WCI  17
CHARLEVOIX     PTCLDY    26  21  79 W14G20    29.68R WCI  15
FRANKFORT      MOCLDY    29  24  79 W15G21    29.71R WCI  18
GAYLORD        LGT SNOW  22  21  96 W16       29.61R FOG     WCI   8
GRAYLING       CLOUDY    25  23  90 W8G16     29.66R WCI  17
HARBOR SPRINGS CLOUDY    24  20  82 W10G16    29.64R WCI  14
HOUGHTON LAKE  MOCLDY    22  17  81 W7        29.66R WCI  13
MANISTEE       CLOUDY    30  19  64 W22       29.72S WCI  17
OSCODA         CLOUDY    28  23  82 W13G21    29.65R WCI  17
PELLSTON       CLOUDY    27  19  72 W16G26    29.62R WCI  15
ROGERS CITY    CLEAR     25  22  89 W8        29.63R WCI  17
TRAVERSE CITY  CLOUDY    26  22  84 SW5       29.68R WCI  20
$$
MIZ007>008-015-040500-
EASTERN UPPER MICHIGAN

CITY           SKY/WX    TMP DP  RH WIND       PRES   REMARKS
KINROSS        CLOUDY    21  21 100 W8        29.58R WCI  12
MACKINAC ISLAN CLOUDY    24  20  83 W10G17    29.60R WCI  14
NEWBERRY       LGT SNOW  23  21  93 W20G29    29.59R WCI   8
S. S. MARIE    FLURRIES  23  19  85 W10       29.55R WCI  12
MUNISING         N/A     23  12  62 NW14G23   29.66R WCI  11
$$
MIZ004>006-011>014-085-040500-
CENTRAL UPPER MICHIGAN

CITY           SKY/WX    TMP DP  RH WIND       PRES   REMARKS
MANISTIQUE     CLOUDY    24  20  87 W8        29.64R WCI  14
ESCANABA       MOCLDY    25  18  74 W12       29.69R WCI  14
MENOMINEE      MOCLDY    27  16  63 W5        29.70R WCI  21
SAWYER-GWINN   LGT SNOW  20  15  81 W12G17    29.63R WCI   8
$$
MIZ001>003-009>011-084-040500-
WESTERN UPPER MICHIGAN

CITY           SKY/WX    TMP DP  RH WIND       PRES   REMARKS
IRON MOUNTAIN  MOCLDY    20   9  62 NW14      29.67R WCI   7
HOUGHTON       MIX PCPN  12   4  70 NW29G38   29.64R WCI  -9
COPPER HARBOR    N/A     16   8  71 N30G37    29.62R WCI  -4
IRONWOOD       CLOUDY    14   3  62 W25       29.72R WCI  -5
$$

ABBREVIATIONS USED IN REMARKS
   TC - TEMPERATURE IN CELSIUS
  WCI - WIND CHILL INDEX
   HX - HEAT INDEX
  VSB - VISIBILITY



USA.gov is the U.S. government's official web portal to all federal, state and local government web resources and services.